This is the latest recevied weather packets stored in our database for station/object K5UBE. If no packets are shown the sender has not sent any weather packets the latest 10 day(s).
| Time | Temp. | Humidity | Pressure | Rain* | Wind** | Luminosity | Snow |
|---|---|---|---|---|---|---|---|
| 1777819189 | 15° C | 58% | 1024 hPa | 0 mm | - | - | - |
| 1777818885 | 14.44° C | 59% | 1024 hPa | 0 mm | - | - | - |
| 1777818581 | 14.44° C | 59% | 1024.1 hPa | 0 mm | - | - | - |
| 1777818279 | 13.89° C | 61% | 1024.2 hPa | 0 mm | - | - | - |
| 1777817974 | 13.33° C | 62% | 1024.1 hPa | 0 mm | - | - | - |
| 1777817672 | 13.33° C | 63% | 1024.2 hPa | 0 mm | - | - | - |
| 1777817369 | 12.78° C | 65% | 1024.1 hPa | 0 mm | - | - | - |
| 1777817066 | 12.78° C | 65% | 1024.2 hPa | 0 mm | - | - | - |
| 1777816762 | 12.22° C | 67% | 1024.2 hPa | 0 mm | - | - | - |
| 1777816460 | 12.22° C | 69% | 1024.2 hPa | 0 mm | - | - | - |
| 1777816157 | 11.67° C | 70% | 1024 hPa | 0 mm | - | - | - |
| 1777815855 | 11.11° C | 71% | 1024.1 hPa | 0 mm | - | - | - |
| 1777815552 | 11.11° C | 73% | 1024.1 hPa | 0 mm | - | - | - |
| 1777815250 | 10.56° C | 74% | 1024.3 hPa | 0 mm | - | - | - |
| 1777814945 | 10° C | 75% | 1023.9 hPa | 0 mm | - | - | - |
| 1777814642 | 9.44° C | 77% | 1024.2 hPa | 0 mm | - | - | - |
| 1777814339 | 8.89° C | 79% | 1024.1 hPa | 0 mm | - | - | - |
| 1777814035 | 8.89° C | 80% | 1024 hPa | 0 mm | - | - | - |
| 1777813733 | 8.33° C | 81% | 1023.9 hPa | 0 mm | - | - | - |
| 1777813430 | 7.78° C | 81% | 1023.9 hPa | 0 mm | - | - | - |
| 1777813127 | 7.78° C | 81% | 1024 hPa | 0 mm | - | - | - |
| 1777812825 | 7.78° C | 81% | 1023.7 hPa | 0 mm | - | - | - |
| 1777812521 | 7.78° C | 82% | 1023.9 hPa | 0 mm | - | - | - |
| 1777812219 | 7.22° C | 82% | 1023.6 hPa | 0 mm | - | - | - |
| 1777811917 | 7.22° C | 83% | 1023.7 hPa | 0 mm | - | - | - |
* Rain latest hour (hover to see other rain measurements)
** Current wind speed in m/s (hover to see current wind gust speed)